Time,TemperatureF,DewpointF,PressureIn,WindDirection,WindDirectionDegrees,WindSpeedMPH,WindSpeedGustMPH,Humidity,HourlyPrecipIn,Conditions,Clouds,dailyrainin,SoftwareType,DateUTC
2013-03-29 00:00:00,39.4,19.7,30.27,ENE,67,0.0,0.0,45,0.00,,,0.00,WUHU21623XXSP,2013-03-29 05:00:00,
2013-03-29 00:05:00,39.4,19.7,30.28,ENE,67,0.0,0.0,45,0.00,,,0.00,WUHU21623XXSP,2013-03-29 05:05:00,
2013-03-29 00:10:00,39.4,19.7,30.27,ENE,67,0.0,0.0,45,0.00,,,0.00,WUHU21623XXSP,2013-03-29 05:10:00,
2013-03-29 00:15:00,39.2,19.5,30.27,ENE,67,0.0,0.0,45,0.00,,,0.00,WUHU21623XXSP,2013-03-29 05:15:00,
2013-03-29 00:20:00,39.4,19.1,30.28,ENE,67,0.0,0.0,44,0.00,,,0.00,WUHU21623XXSP,2013-03-29 05:20:00,
2013-03-29 00:25:00,39.2,19.5,30.28,NE,45,0.0,0.0,45,0.00,,,0.00,WUHU21623XXSP,2013-03-29 05:25:00,
2013-03-29 00:30:00,39.0,19.3,30.28,NE,45,0.0,0.0,45,0.00,,,0.00,WUHU21623XXSP,2013-03-29 05:30:00,
2013-03-29 00:35:00,38.8,19.2,30.28,NE,45,0.4,0.4,45,0.00,,,0.00,WUHU21623XXSP,2013-03-29 05:35:00,
2013-03-29 00:40:00,38.8,19.2,30.27,NE,45,0.0,0.4,45,0.00,,,0.00,WUHU21623XXSP,2013-03-29 05:40:00,
2013-03-29 00:45:00,38.7,19.5,30.28,NE,45,0.0,0.0,46,0.00,,,0.00,WUHU21623XXSP,2013-03-29 05:45:00,
2013-03-29 00:50:00,38.7,19.5,30.28,NE,45,0.0,0.7,46,0.00,,,0.00,WUHU21623XXSP,2013-03-29 05:50:00,
2013-03-29 00:55:00,38.3,19.2,30.27,NE,45,0.0,0.7,46,0.00,,,0.00,WUHU21623XXSP,2013-03-29 05:55:00,
2013-03-29 01:00:00,38.3,19.2,30.27,NE,45,0.0,0.0,46,0.00,,,0.00,WUHU21623XXSP,2013-03-29 06:00:00,
2013-03-29 01:05:00,38.3,19.2,30.27,NE,45,0.0,0.0,46,0.00,,,0.00,WUHU21623XXSP,2013-03-29 06:05:00,
2013-03-29 01:10:00,38.3,19.2,30.28,ENE,67,0.0,0.0,46,0.00,,,0.00,WUHU21623XXSP,2013-03-29 06:10:00,
2013-03-29 01:15:00,38.3,19.2,30.28,ENE,67,0.0,0.0,46,0.00,,,0.00,WUHU21623XXSP,2013-03-29 06:15:00,
2013-03-29 01:20:00,38.3,19.2,30.28,ENE,67,0.0,0.0,46,0.00,,,0.00,WUHU21623XXSP,2013-03-29 06:20:00,
2013-03-29 01:25:00,38.3,18.7,30.28,ENE,67,0.0,0.0,45,0.00,,,0.00,WUHU21623XXSP,2013-03-29 06:25:00,
2013-03-29 01:30:00,38.3,18.7,30.28,NE,45,0.0,0.0,45,0.00,,,0.00,WUHU21623XXSP,2013-03-29 06:30:00,
2013-03-29 01:35:00,38.3,18.7,30.28,NE,45,0.0,0.0,45,0.00,,,0.00,WUHU21623XXSP,2013-03-29 06:35:00,
2013-03-29 01:40:00,38.1,18.7,30.28,NE,45,0.0,0.0,45,0.00,,,0.00,WUHU21623XXSP,2013-03-29 06:40:00,
2013-03-29 01:45:00,38.1,18.5,30.28,NE,45,0.0,0.0,45,0.00,,,0.00,WUHU21623XXSP,2013-03-29 06:45:00,
2013-03-29 01:50:00,37.9,18.4,30.28,NE,45,0.0,0.0,45,0.00,,,0.00,WUHU21623XXSP,2013-03-29 06:50:00,
2013-03-29 01:55:00,37.9,18.4,30.28,NE,45,0.0,0.0,45,0.00,,,0.00,WUHU21623XXSP,2013-03-29 06:55:00,
2013-03-29 02:00:00,37.8,18.2,30.28,NE,45,0.0,0.0,45,0.00,,,0.00,WUHU21623XXSP,2013-03-29 07:00:00,
2013-03-29 02:05:00,37.6,18.6,30.28,NE,45,0.0,0.0,46,0.00,,,0.00,WUHU21623XXSP,2013-03-29 07:05:00,
2013-03-29 02:10:00,37.6,18.6,30.28,NE,45,0.0,0.0,46,0.00,,,0.00,WUHU21623XXSP,2013-03-29 07:10:00,
2013-03-29 02:15:00,37.6,18.6,30.28,NE,45,0.0,0.0,46,0.00,,,0.00,WUHU21623XXSP,2013-03-29 07:15:00,
2013-03-29 02:20:00,37.4,18.4,30.28,NE,45,0.0,0.0,46,0.00,,,0.00,WUHU21623XXSP,2013-03-29 07:20:00,
2013-03-29 02:25:00,37.4,18.4,30.28,NE,45,0.0,0.0,46,0.00,,,0.00,WUHU21623XXSP,2013-03-29 07:25:00,
2013-03-29 02:30:00,37.2,18.2,30.27,NE,45,0.0,0.0,46,0.00,,,0.00,WUHU21623XXSP,2013-03-29 07:30:00,
2013-03-29 02:35:00,37.2,18.2,30.27,NE,45,0.0,0.0,46,0.00,,,0.00,WUHU21623XXSP,2013-03-29 07:35:00,
2013-03-29 02:40:00,37.0,18.1,30.27,NE,45,0.0,0.0,46,0.00,,,0.00,WUHU21623XXSP,2013-03-29 07:40:00,
2013-03-29 02:45:00,36.9,17.9,30.27,NE,45,0.0,0.0,46,0.00,,,0.00,WUHU21623XXSP,2013-03-29 07:45:00,
2013-03-29 02:50:00,36.9,17.9,30.27,NE,45,0.0,0.0,46,0.00,,,0.00,WUHU21623XXSP,2013-03-29 07:50:00,
2013-03-29 02:55:00,36.7,17.7,30.27,ENE,67,0.0,0.0,46,0.00,,,0.00,WUHU21623XXSP,2013-03-29 07:55:00,
2013-03-29 03:00:00,36.5,17.6,30.27,ENE,67,0.0,0.0,46,0.00,,,0.00,WUHU21623XXSP,2013-03-29 08:00:00,
2013-03-29 03:05:00,36.3,17.4,30.27,ENE,67,0.0,0.0,46,0.00,,,0.00,WUHU21623XXSP,2013-03-29 08:05:00,
2013-03-29 03:10:00,36.3,17.4,30.26,ENE,67,0.0,0.0,46,0.00,,,0.00,WUHU21623XXSP,2013-03-29 08:10:00,
2013-03-29 03:15:00,36.3,17.4,30.27,ENE,67,0.0,0.0,46,0.00,,,0.00,WUHU21623XXSP,2013-03-29 08:15:00,
2013-03-29 03:20:00,36.0,17.1,30.27,ENE,67,0.0,0.0,46,0.00,,,0.00,WUHU21623XXSP,2013-03-29 08:20:00,
2013-03-29 03:25:00,36.0,17.1,30.27,ENE,67,0.0,0.0,46,0.00,,,0.00,WUHU21623XXSP,2013-03-29 08:25:00,
2013-03-29 03:30:00,36.0,17.1,30.26,ENE,67,0.0,0.0,46,0.00,,,0.00,WUHU21623XXSP,2013-03-29 08:30:00,
2013-03-29 03:35:00,35.8,16.9,30.27,ESE,112,0.0,0.0,46,0.00,,,0.00,WUHU21623XXSP,2013-03-29 08:35:00,
2013-03-29 03:40:00,35.8,16.9,30.26,East,90,0.0,0.0,46,0.00,,,0.00,WUHU21623XXSP,2013-03-29 08:40:00,
2013-03-29 03:45:00,35.8,16.9,30.27,South,180,0.0,0.0,46,0.00,,,0.00,WUHU21623XXSP,2013-03-29 08:45:00,
2013-03-29 03:50:00,35.6,16.8,30.27,East,90,0.0,0.0,46,0.00,,,0.00,WUHU21623XXSP,2013-03-29 08:50:00,
2013-03-29 03:55:00,35.8,16.9,30.27,ESE,112,0.0,0.0,46,0.00,,,0.00,WUHU21623XXSP,2013-03-29 08:55:00,
2013-03-29 04:00:00,35.8,16.9,30.27,ESE,112,0.0,0.0,46,0.00,,,0.00,WUHU21623XXSP,2013-03-29 09:00:00,
2013-03-29 04:05:00,35.4,16.6,30.27,ESE,112,0.0,0.0,46,0.00,,,0.00,WUHU21623XXSP,2013-03-29 09:05:00,
2013-03-29 04:10:00,35.4,16.1,30.27,ESE,112,0.0,0.0,45,0.00,,,0.00,WUHU21623XXSP,2013-03-29 09:10:00,
2013-03-29 04:15:00,35.4,15.9,30.27,ESE,112,0.0,0.0,45,0.00,,,0.00,WUHU21623XXSP,2013-03-29 09:15:00,
2013-03-29 04:20:00,35.4,16.6,30.27,ESE,112,0.0,0.0,46,0.00,,,0.00,WUHU21623XXSP,2013-03-29 09:20:00,
2013-03-29 04:25:00,35.2,15.9,30.27,ESE,112,0.0,0.0,45,0.00,,,0.00,WUHU21623XXSP,2013-03-29 09:25:00,
2013-03-29 04:30:00,35.1,16.3,30.26,East,90,0.0,0.4,46,0.00,,,0.00,WUHU21623XXSP,2013-03-29 09:30:00,
2013-03-29 04:35:00,35.1,15.9,30.26,ENE,67,0.0,0.7,45,0.00,,,0.00,WUHU21623XXSP,2013-03-29 09:35:00,
2013-03-29 04:40:00,35.2,16.4,30.26,East,90,0.0,0.7,46,0.00,,,0.00,WUHU21623XXSP,2013-03-29 09:40:00,
2013-03-29 04:45:00,35.1,16.3,30.26,ENE,67,0.0,0.4,46,0.00,,,0.00,WUHU21623XXSP,2013-03-29 09:45:00,
2013-03-29 04:50:00,35.1,16.3,30.26,ENE,67,0.0,0.0,46,0.00,,,0.00,WUHU21623XXSP,2013-03-29 09:50:00,
2013-03-29 04:55:00,34.9,16.1,30.26,ENE,67,0.0,0.0,46,0.00,,,0.00,WUHU21623XXSP,2013-03-29 09:55:00,
2013-03-29 05:00:00,34.9,16.1,30.26,ENE,67,0.0,0.0,46,0.00,,,0.00,WUHU21623XXSP,2013-03-29 10:00:00,
2013-03-29 05:05:00,34.7,15.9,30.26,SE,135,0.0,0.0,46,0.00,,,0.00,WUHU21623XXSP,2013-03-29 10:05:00,
2013-03-29 05:10:00,34.7,15.9,30.26,SE,135,0.0,0.0,46,0.00,,,0.00,WUHU21623XXSP,2013-03-29 10:10:00,
2013-03-29 05:15:00,34.5,15.7,30.26,ENE,67,0.0,0.0,46,0.00,,,0.00,WUHU21623XXSP,2013-03-29 10:15:00,
2013-03-29 05:20:00,34.5,15.7,30.26,ENE,67,0.0,0.0,46,0.00,,,0.00,WUHU21623XXSP,2013-03-29 10:20:00,
2013-03-29 05:25:00,34.5,15.7,30.26,ENE,67,0.0,0.0,46,0.00,,,0.00,WUHU21623XXSP,2013-03-29 10:25:00,
2013-03-29 05:30:00,34.3,15.5,30.26,ENE,67,0.0,0.0,46,0.00,,,0.00,WUHU21623XXSP,2013-03-29 10:30:00,
2013-03-29 05:35:00,34.3,15.5,30.26,ENE,67,0.0,0.0,46,0.00,,,0.00,WUHU21623XXSP,2013-03-29 10:35:00,
2013-03-29 05:40:00,34.3,15.5,30.26,East,90,0.0,0.0,46,0.00,,,0.00,WUHU21623XXSP,2013-03-29 10:40:00,
2013-03-29 05:45:00,34.3,15.4,30.26,East,90,0.0,0.0,46,0.00,,,0.00,WUHU21623XXSP,2013-03-29 10:45:00,
2013-03-29 05:50:00,34.2,15.4,30.26,NE,45,0.0,0.0,46,0.00,,,0.00,WUHU21623XXSP,2013-03-29 10:50:00,
2013-03-29 05:55:00,34.2,15.4,30.26,NE,45,0.0,0.0,46,0.00,,,0.00,WUHU21623XXSP,2013-03-29 10:55:00,
2013-03-29 06:00:00,34.0,15.2,30.26,NE,45,0.0,0.0,46,0.00,,,0.00,WUHU21623XXSP,2013-03-29 11:00:00,
2013-03-29 06:05:00,34.0,15.2,30.26,East,90,0.0,0.0,46,0.00,,,0.00,WUHU21623XXSP,2013-03-29 11:05:00,
2013-03-29 06:10:00,34.0,15.7,30.26,East,90,0.0,0.0,47,0.00,,,0.00,WUHU21623XXSP,2013-03-29 11:10:00,
2013-03-29 06:15:00,34.0,15.7,30.26,ESE,112,0.0,0.0,47,0.00,,,0.00,WUHU21623XXSP,2013-03-29 11:15:00,
2013-03-29 06:20:00,34.0,15.7,30.26,ESE,112,0.0,0.0,47,0.00,,,0.00,WUHU21623XXSP,2013-03-29 11:20:00,
2013-03-29 06:25:00,34.0,15.7,30.27,ESE,112,0.0,0.0,47,0.00,,,0.00,WUHU21623XXSP,2013-03-29 11:25:00,
2013-03-29 06:30:00,34.0,15.7,30.27,ESE,112,0.0,0.0,47,0.00,,,0.00,WUHU21623XXSP,2013-03-29 11:30:00,
2013-03-29 06:35:00,33.8,15.0,30.27,ENE,67,0.0,0.0,46,0.00,,,0.00,WUHU21623XXSP,2013-03-29 11:35:00,
2013-03-29 06:40:00,33.6,14.9,30.27,ENE,67,0.0,0.0,46,0.00,,,0.00,WUHU21623XXSP,2013-03-29 11:40:00,
2013-03-29 06:45:00,33.6,14.9,30.26,ENE,67,0.0,0.0,46,0.00,,,0.00,WUHU21623XXSP,2013-03-29 11:45:00,
2013-03-29 06:50:00,33.4,14.7,30.27,NE,45,0.0,0.0,46,0.00,,,0.00,WUHU21623XXSP,2013-03-29 11:50:00,
2013-03-29 06:55:00,33.4,14.7,30.27,NE,45,0.0,0.0,46,0.00,,,0.00,WUHU21623XXSP,2013-03-29 11:55:00,
2013-03-29 07:00:00,33.4,14.7,30.27,NE,45,0.0,0.0,46,0.00,,,0.00,WUHU21623XXSP,2013-03-29 12:00:00,
2013-03-29 07:05:00,33.4,15.2,30.27,NE,45,0.0,0.0,47,0.00,,,0.00,WUHU21623XXSP,2013-03-29 12:05:00,
2013-03-29 07:10:00,33.4,15.2,30.27,ENE,67,0.0,0.0,47,0.00,,,0.00,WUHU21623XXSP,2013-03-29 12:10:00,
2013-03-29 07:15:00,33.4,15.2,30.27,NE,45,0.0,0.0,47,0.00,,,0.00,WUHU21623XXSP,2013-03-29 12:15:00,
2013-03-29 07:20:00,33.6,15.9,30.27,East,90,0.0,0.0,48,0.00,,,0.00,WUHU21623XXSP,2013-03-29 12:20:00,
2013-03-29 07:25:00,34.0,16.2,30.27,East,90,0.0,0.0,48,0.00,,,0.00,WUHU21623XXSP,2013-03-29 12:25:00,
2013-03-29 07:30:00,34.0,16.2,30.28,East,90,0.0,0.0,48,0.00,,,0.00,WUHU21623XXSP,2013-03-29 12:30:00,
2013-03-29 07:35:00,34.3,16.6,30.28,ENE,67,0.0,0.0,48,0.00,,,0.00,WUHU21623XXSP,2013-03-29 12:35:00,
2013-03-29 07:40:00,34.7,16.9,30.28,East,90,0.0,0.0,48,0.00,,,0.00,WUHU21623XXSP,2013-03-29 12:40:00,
2013-03-29 07:45:00,35.2,18.0,30.28,East,90,0.0,0.0,49,0.00,,,0.00,WUHU21623XXSP,2013-03-29 12:45:00,
2013-03-29 07:50:00,36.3,18.5,30.28,ESE,112,0.0,0.0,48,0.00,,,0.00,WUHU21623XXSP,2013-03-29 12:50:00,
2013-03-29 07:55:00,36.5,18.6,30.28,East,90,0.0,0.0,48,0.00,,,0.00,WUHU21623XXSP,2013-03-29 12:55:00,
2013-03-29 08:00:00,37.0,18.6,30.28,East,90,0.0,0.0,47,0.00,,,0.00,WUHU21623XXSP,2013-03-29 13:00:00,
2013-03-29 08:05:00,37.8,19.2,30.28,ENE,67,0.0,1.1,47,0.00,,,0.00,WUHU21623XXSP,2013-03-29 13:05:00,
2013-03-29 08:10:00,38.1,19.0,30.28,East,90,0.0,1.1,46,0.00,,,0.00,WUHU21623XXSP,2013-03-29 13:10:00,
2013-03-29 08:15:00,38.7,19.5,30.29,ESE,112,0.0,0.0,46,0.00,,,0.00,WUHU21623XXSP,2013-03-29 13:15:00,
2013-03-29 08:20:00,39.6,19.8,30.28,ENE,67,1.3,1.3,45,0.00,,,0.00,WUHU21623XXSP,2013-03-29 13:20:00,
2013-03-29 08:25:00,39.9,19.6,30.28,ESE,112,0.0,1.3,44,0.00,,,0.00,WUHU21623XXSP,2013-03-29 13:25:00,
2013-03-29 08:30:00,40.6,19.7,30.29,ESE,112,0.0,0.0,43,0.00,,,0.00,WUHU21623XXSP,2013-03-29 13:30:00,
2013-03-29 08:35:00,41.2,19.7,30.29,ENE,67,0.0,0.0,42,0.00,,,0.00,WUHU21623XXSP,2013-03-29 13:35:00,
2013-03-29 08:40:00,41.7,20.2,30.29,East,90,0.0,0.0,42,0.00,,,0.00,WUHU21623XXSP,2013-03-29 13:40:00,
2013-03-29 08:45:00,41.9,19.8,30.29,ESE,112,1.1,1.6,41,0.00,,,0.00,WUHU21623XXSP,2013-03-29 13:45:00,
2013-03-29 08:50:00,42.3,19.6,30.29,SE,135,0.4,1.6,40,0.00,,,0.00,WUHU21623XXSP,2013-03-29 13:50:00,
2013-03-29 08:55:00,42.4,19.8,30.29,ESE,112,0.0,0.9,40,0.00,,,0.00,WUHU21623XXSP,2013-03-29 13:55:00,
2013-03-29 09:00:00,43.0,20.3,30.29,SE,135,0.4,0.9,40,0.00,,,0.00,WUHU21623XXSP,2013-03-29 14:00:00,
2013-03-29 09:05:00,43.5,20.8,30.29,SSE,157,0.0,0.4,40,0.00,,,0.00,WUHU21623XXSP,2013-03-29 14:05:00,
2013-03-29 09:10:00,43.9,21.1,30.29,ESE,112,0.7,0.7,40,0.00,,,0.00,WUHU21623XXSP,2013-03-29 14:10:00,
2013-03-29 09:15:00,44.4,21.6,30.29,ESE,112,0.0,0.7,40,0.00,,,0.00,WUHU21623XXSP,2013-03-29 14:15:00,
2013-03-29 09:20:00,45.0,21.4,30.30,SE,135,0.0,0.4,39,0.00,,,0.00,WUHU21623XXSP,2013-03-29 14:20:00,
2013-03-29 09:25:00,45.3,21.7,30.29,SSE,157,1.8,1.8,39,0.00,,,0.00,WUHU21623XXSP,2013-03-29 14:25:00,
2013-03-29 09:30:00,45.9,20.9,30.29,SE,135,1.6,1.8,37,0.00,,,0.00,WUHU21623XXSP,2013-03-29 14:30:00,
2013-03-29 09:35:00,46.0,21.0,30.30,SSE,157,0.0,1.6,37,0.00,,,0.00,WUHU21623XXSP,2013-03-29 14:35:00,
2013-03-29 09:40:00,46.8,21.7,30.30,East,90,0.7,0.7,37,0.00,,,0.00,WUHU21623XXSP,2013-03-29 14:40:00,
2013-03-29 09:45:00,47.3,21.5,30.30,SSE,157,1.3,1.8,36,0.00,,,0.00,WUHU21623XXSP,2013-03-29 14:45:00,
2013-03-29 09:50:00,47.5,21.0,30.30,SSE,157,0.0,1.8,35,0.00,,,0.00,WUHU21623XXSP,2013-03-29 14:50:00,
2013-03-29 09:55:00,47.8,20.7,30.30,SE,135,0.7,0.7,34,0.00,,,0.00,WUHU21623XXSP,2013-03-29 14:55:00,
2013-03-29 10:00:00,48.4,20.5,30.29,SE,135,0.4,0.7,33,0.00,,,0.00,WUHU21623XXSP,2013-03-29 15:00:00,
2013-03-29 10:05:00,48.6,20.6,30.29,SE,135,0.7,0.7,33,0.00,,,0.00,WUHU21623XXSP,2013-03-29 15:05:00,
2013-03-29 10:10:00,48.9,20.9,30.29,South,180,0.4,1.1,33,0.00,,,0.00,WUHU21623XXSP,2013-03-29 15:10:00,
2013-03-29 10:15:00,49.5,22.7,30.29,East,90,0.0,2.0,35,0.00,,,0.00,WUHU21623XXSP,2013-03-29 15:15:00,
2013-03-29 10:20:00,50.2,23.3,30.29,East,90,0.9,2.0,35,0.00,,,0.00,WUHU21623XXSP,2013-03-29 15:20:00,
2013-03-29 10:25:00,50.5,23.7,30.29,SE,135,0.7,1.3,35,0.00,,,0.00,WUHU21623XXSP,2013-03-29 15:25:00,
2013-03-29 10:30:00,50.7,22.5,30.29,NE,45,0.0,1.6,33,0.00,,,0.00,WUHU21623XXSP,2013-03-29 15:30:00,
2013-03-29 10:35:00,50.9,22.6,30.29,NE,45,0.0,1.6,33,0.00,,,0.00,WUHU21623XXSP,2013-03-29 15:35:00,
2013-03-29 10:40:00,51.4,23.8,30.29,ESE,112,1.1,1.1,34,0.00,,,0.00,WUHU21623XXSP,2013-03-29 15:40:00,
2013-03-29 10:45:00,52.0,23.6,30.29,NNE,22,0.0,1.1,33,0.00,,,0.00,WUHU21623XXSP,2013-03-29 15:45:00,
2013-03-29 10:50:00,52.0,22.9,30.29,SE,135,0.0,1.1,32,0.00,,,0.00,WUHU21623XXSP,2013-03-29 15:50:00,
2013-03-29 10:55:00,52.0,23.6,30.29,NNE,22,0.9,0.9,33,0.00,,,0.00,WUHU21623XXSP,2013-03-29 15:55:00,
2013-03-29 11:00:00,52.7,24.8,30.29,ENE,67,0.0,3.4,34,0.00,,,0.00,WUHU21623XXSP,2013-03-29 16:00:00,
2013-03-29 11:05:00,53.1,24.6,30.29,ESE,112,0.0,3.4,33,0.00,,,0.00,WUHU21623XXSP,2013-03-29 16:05:00,
2013-03-29 11:10:00,53.1,23.2,30.29,ESE,112,1.8,2.2,31,0.00,,,0.00,WUHU21623XXSP,2013-03-29 16:10:00,
2013-03-29 11:15:00,53.1,23.2,30.29,ENE,67,0.0,2.2,31,0.00,,,0.00,WUHU21623XXSP,2013-03-29 16:15:00,
2013-03-29 11:20:00,53.1,23.9,30.29,SSE,157,0.2,0.2,32,0.00,,,0.00,WUHU21623XXSP,2013-03-29 16:20:00,
2013-03-29 11:25:00,53.2,23.4,30.29,ENE,67,1.6,1.6,31,0.00,,,0.00,WUHU21623XXSP,2013-03-29 16:25:00,
2013-03-29 11:30:00,53.8,24.5,30.29,NNE,22,1.1,1.6,32,0.00,,,0.00,WUHU21623XXSP,2013-03-29 16:30:00,
2013-03-29 11:35:00,54.1,24.8,30.29,SE,135,1.3,1.3,32,0.00,,,0.00,WUHU21623XXSP,2013-03-29 16:35:00,
2013-03-29 11:40:00,54.1,24.8,30.29,ENE,67,0.9,1.3,32,0.00,,,0.00,WUHU21623XXSP,2013-03-29 16:40:00,
2013-03-29 11:45:00,54.5,24.4,30.28,East,90,0.0,0.9,31,0.00,,,0.00,WUHU21623XXSP,2013-03-29 16:45:00,
2013-03-29 11:50:00,54.9,24.0,30.28,NNE,22,1.6,1.6,30,0.00,,,0.00,WUHU21623XXSP,2013-03-29 16:50:00,
2013-03-29 11:55:00,55.0,23.2,30.28,SSE,157,1.1,1.6,29,0.00,,,0.00,WUHU21623XXSP,2013-03-29 16:55:00,
2013-03-29 12:00:00,55.0,22.3,30.28,ESE,112,1.3,1.6,28,0.00,,,0.00,WUHU21623XXSP,2013-03-29 17:00:00,
2013-03-29 12:05:00,55.0,23.2,30.28,ENE,67,0.4,1.6,29,0.00,,,0.00,WUHU21623XXSP,2013-03-29 17:05:00,
2013-03-29 12:10:00,56.1,24.1,30.28,SSE,157,1.1,1.1,29,0.00,,,0.00,WUHU21623XXSP,2013-03-29 17:10:00,
2013-03-29 12:15:00,56.3,23.4,30.28,ESE,112,1.3,1.3,28,0.00,,,0.00,WUHU21623XXSP,2013-03-29 17:15:00,
2013-03-29 12:20:00,56.1,22.2,30.27,South,180,0.0,1.3,27,0.00,,,0.00,WUHU21623XXSP,2013-03-29 17:20:00,
2013-03-29 12:25:00,56.1,21.3,30.27,SE,135,0.4,2.5,26,0.00,,,0.00,WUHU21623XXSP,2013-03-29 17:25:00,
2013-03-29 12:30:00,55.6,20.8,30.27,SSE,157,0.7,2.5,26,0.00,,,0.00,WUHU21623XXSP,2013-03-29 17:30:00,
2013-03-29 12:35:00,55.0,20.4,30.27,South,180,2.0,2.0,26,0.00,,,0.00,WUHU21623XXSP,2013-03-29 17:35:00,
2013-03-29 12:40:00,55.6,21.8,30.27,NE,45,3.8,3.8,27,0.00,,,0.00,WUHU21623XXSP,2013-03-29 17:40:00,
2013-03-29 12:45:00,56.3,24.3,30.27,NNE,22,0.0,3.8,29,0.00,,,0.00,WUHU21623XXSP,2013-03-29 17:45:00,
2013-03-29 12:50:00,56.7,22.7,30.26,SE,135,0.0,1.1,27,0.00,,,0.00,WUHU21623XXSP,2013-03-29 17:50:00,
2013-03-29 12:55:00,56.7,20.8,30.26,ESE,112,2.0,2.0,25,0.00,,,0.00,WUHU21623XXSP,2013-03-29 17:55:00,
2013-03-29 13:00:00,56.7,21.8,30.26,NNE,22,1.1,2.0,26,0.00,,,0.00,WUHU21623XXSP,2013-03-29 18:00:00,
2013-03-29 13:05:00,57.2,23.2,30.26,NNE,22,0.0,1.1,27,0.00,,,0.00,WUHU21623XXSP,2013-03-29 18:05:00,
2013-03-29 13:10:00,58.5,24.3,30.26,NE,45,0.0,3.4,27,0.00,,,0.00,WUHU21623XXSP,2013-03-29 18:10:00,
2013-03-29 13:15:00,59.4,24.1,30.26,NE,45,0.0,3.4,26,0.00,,,0.00,WUHU21623XXSP,2013-03-29 18:15:00,
2013-03-29 13:20:00,59.9,22.6,30.26,SE,135,0.0,1.1,24,0.00,,,0.00,WUHU21623XXSP,2013-03-29 18:20:00,
2013-03-29 13:25:00,60.3,21.0,30.26,East,90,0.0,0.0,22,0.00,,,0.00,WUHU21623XXSP,2013-03-29 18:25:00,
2013-03-29 13:30:00,59.9,17.5,30.26,South,180,0.0,0.0,19,0.00,,,0.00,WUHU21623XXSP,2013-03-29 18:30:00,
2013-03-29 13:35:00,59.5,17.1,30.26,SSW,202,0.4,3.1,19,0.00,,,0.00,WUHU21623XXSP,2013-03-29 18:35:00,
2013-03-29 13:40:00,59.9,22.6,30.25,NNW,337,0.4,3.1,24,0.00,,,0.00,WUHU21623XXSP,2013-03-29 18:40:00,
2013-03-29 13:45:00,60.3,21.0,30.25,East,90,0.0,1.1,22,0.00,,,0.00,WUHU21623XXSP,2013-03-29 18:45:00,
2013-03-29 13:50:00,60.3,17.8,30.25,SSE,157,0.7,2.5,19,0.00,,,0.00,WUHU21623XXSP,2013-03-29 18:50:00,
2013-03-29 13:55:00,59.9,17.5,30.25,NE,45,3.1,3.1,19,0.00,,,0.00,WUHU21623XXSP,2013-03-29 18:55:00,
2013-03-29 14:00:00,60.4,22.1,30.25,ESE,112,0.4,4.0,23,0.00,,,0.00,WUHU21623XXSP,2013-03-29 19:00:00,
2013-03-29 14:05:00,61.2,22.7,30.25,NNW,337,1.8,4.0,23,0.00,,,0.00,WUHU21623XXSP,2013-03-29 19:05:00,
2013-03-29 14:10:00,61.7,22.2,30.25,NNW,337,3.4,3.4,22,0.00,,,0.00,WUHU21623XXSP,2013-03-29 19:10:00,
2013-03-29 14:15:00,61.9,21.4,30.24,NNW,337,2.0,3.4,21,0.00,,,0.00,WUHU21623XXSP,2013-03-29 19:15:00,
2013-03-29 14:20:00,62.2,19.4,30.24,NNW,337,1.3,2.0,19,0.00,,,0.00,WUHU21623XXSP,2013-03-29 19:20:00,
2013-03-29 14:25:00,62.2,19.4,30.24,NW,315,3.6,3.6,19,0.00,,,0.00,WUHU21623XXSP,2013-03-29 19:25:00,
2013-03-29 14:30:00,62.2,19.4,30.24,NNW,337,0.0,3.6,19,0.00,,,0.00,WUHU21623XXSP,2013-03-29 19:30:00,
2013-03-29 14:35:00,62.2,19.4,30.24,NE,45,0.4,2.7,19,0.00,,,0.00,WUHU21623XXSP,2013-03-29 19:35:00,
2013-03-29 14:40:00,62.2,19.4,30.24,NE,45,0.0,2.7,19,0.00,,,0.00,WUHU21623XXSP,2013-03-29 19:40:00,
2013-03-29 14:45:00,62.2,19.4,30.24,SE,135,1.3,2.7,19,0.00,,,0.00,WUHU21623XXSP,2013-03-29 19:45:00,
2013-03-29 14:50:00,61.2,18.5,30.24,NW,315,0.0,1.3,19,0.00,,,0.00,WUHU21623XXSP,2013-03-29 19:50:00,
2013-03-29 14:55:00,61.0,18.4,30.23,NW,315,3.8,3.8,19,0.00,,,0.00,WUHU21623XXSP,2013-03-29 19:55:00,
2013-03-29 15:00:00,61.2,18.5,30.23,NW,315,3.4,3.8,19,0.00,,,0.00,WUHU21623XXSP,2013-03-29 20:00:00,
2013-03-29 15:05:00,61.2,18.5,30.22,WNW,292,0.0,5.1,19,0.00,,,0.00,WUHU21623XXSP,2013-03-29 20:05:00,
2013-03-29 15:10:00,60.6,18.0,30.22,WNW,292,2.0,5.1,19,0.00,,,0.00,WUHU21623XXSP,2013-03-29 20:10:00,
2013-03-29 15:15:00,60.3,17.8,30.22,NW,315,0.0,2.2,19,0.00,,,0.00,WUHU21623XXSP,2013-03-29 20:15:00,
2013-03-29 15:20:00,59.4,17.0,30.22,NNW,337,1.3,1.3,19,0.00,,,0.00,WUHU21623XXSP,2013-03-29 20:20:00,
2013-03-29 15:25:00,59.5,17.1,30.22,WNW,292,0.0,3.4,19,0.00,,,0.00,WUHU21623XXSP,2013-03-29 20:25:00,
2013-03-29 15:30:00,59.4,17.0,30.22,WNW,292,2.7,3.4,19,0.00,,,0.00,WUHU21623XXSP,2013-03-29 20:30:00,
2013-03-29 15:35:00,59.2,16.9,30.22,North,0,3.8,3.8,19,0.00,,,0.00,WUHU21623XXSP,2013-03-29 20:35:00,
2013-03-29 15:40:00,59.4,20.2,30.22,NNE,22,4.0,4.0,22,0.00,,,0.00,WUHU21623XXSP,2013-03-29 20:40:00,
2013-03-29 15:45:00,59.7,21.5,30.22,NNW,337,0.0,4.0,23,0.00,,,0.00,WUHU21623XXSP,2013-03-29 20:45:00,
2013-03-29 15:50:00,59.7,20.5,30.22,ENE,67,1.3,4.5,22,0.00,,,0.00,WUHU21623XXSP,2013-03-29 20:50:00,
2013-03-29 15:55:00,59.9,20.7,30.22,North,0,3.1,4.5,22,0.00,,,0.00,WUHU21623XXSP,2013-03-29 20:55:00,
2013-03-29 16:00:00,60.1,20.8,30.22,NNE,22,0.0,3.1,22,0.00,,,0.00,WUHU21623XXSP,2013-03-29 21:00:00,
2013-03-29 16:05:00,60.1,20.8,30.21,West,270,0.0,3.1,22,0.00,,,0.00,WUHU21623XXSP,2013-03-29 21:05:00,
2013-03-29 16:10:00,59.7,17.3,30.21,NNW,337,0.9,3.1,19,0.00,,,0.00,WUHU21623XXSP,2013-03-29 21:10:00,
2013-03-29 16:15:00,59.4,17.0,30.21,NNW,337,0.0,2.7,19,0.00,,,0.00,WUHU21623XXSP,2013-03-29 21:15:00,
2013-03-29 16:20:00,59.5,21.3,30.21,NNW,337,0.0,1.1,23,0.00,,,0.00,WUHU21623XXSP,2013-03-29 21:20:00,
2013-03-29 16:25:00,59.5,20.4,30.20,SE,135,0.7,1.1,22,0.00,,,0.00,WUHU21623XXSP,2013-03-29 21:25:00,
2013-03-29 16:30:00,59.0,16.7,30.20,SSE,157,0.9,1.8,19,0.00,,,0.00,WUHU21623XXSP,2013-03-29 21:30:00,
2013-03-29 16:35:00,58.6,16.4,30.20,South,180,0.0,1.8,19,0.00,,,0.00,WUHU21623XXSP,2013-03-29 21:35:00,
2013-03-29 16:40:00,58.6,16.4,30.20,South,180,0.0,0.0,19,0.00,,,0.00,WUHU21623XXSP,2013-03-29 21:40:00,
2013-03-29 16:45:00,58.8,16.6,30.20,WSW,247,0.0,0.0,19,0.00,,,0.00,WUHU21623XXSP,2013-03-29 21:45:00,
2013-03-29 16:50:00,59.4,21.2,30.20,NNW,337,0.0,0.0,23,0.00,,,0.00,WUHU21623XXSP,2013-03-29 21:50:00,
2013-03-29 16:55:00,59.5,21.3,30.20,NNW,337,0.0,0.9,23,0.00,,,0.00,WUHU21623XXSP,2013-03-29 21:55:00,
2013-03-29 17:00:00,59.9,21.6,30.20,NNE,22,2.0,2.0,23,0.00,,,0.00,WUHU21623XXSP,2013-03-29 22:00:00,
2013-03-29 17:05:00,59.9,20.7,30.19,NW,315,0.9,2.0,22,0.00,,,0.00,WUHU21623XXSP,2013-03-29 22:05:00,
2013-03-29 17:10:00,59.7,20.5,30.20,NNW,337,0.0,0.9,22,0.00,,,0.00,WUHU21623XXSP,2013-03-29 22:10:00,
2013-03-29 17:15:00,59.5,20.4,30.20,North,0,0.0,0.0,22,0.00,,,0.00,WUHU21623XXSP,2013-03-29 22:15:00,
2013-03-29 17:20:00,59.0,16.7,30.19,ESE,112,0.0,0.0,19,0.00,,,0.00,WUHU21623XXSP,2013-03-29 22:20:00,
2013-03-29 17:25:00,58.6,16.4,30.19,NW,315,0.0,0.0,19,0.00,,,0.00,WUHU21623XXSP,2013-03-29 22:25:00,
2013-03-29 17:30:00,58.1,16.0,30.19,ESE,112,0.0,0.0,19,0.00,,,0.00,WUHU21623XXSP,2013-03-29 22:30:00,
2013-03-29 17:35:00,57.7,19.8,30.20,NE,45,2.9,2.9,23,0.00,,,0.00,WUHU21623XXSP,2013-03-29 22:35:00,
2013-03-29 17:40:00,57.7,21.7,30.19,East,90,0.0,2.9,25,0.00,,,0.00,WUHU21623XXSP,2013-03-29 22:40:00,
2013-03-29 17:45:00,57.4,21.4,30.20,NE,45,0.0,0.7,25,0.00,,,0.00,WUHU21623XXSP,2013-03-29 22:45:00,
2013-03-29 17:50:00,57.2,21.3,30.19,ESE,112,0.0,0.7,25,0.00,,,0.00,WUHU21623XXSP,2013-03-29 22:50:00,
2013-03-29 17:56:00,56.8,21.9,30.19,ESE,112,0.0,0.0,26,0.00,,,0.00,WUHU21623XXSP,2013-03-29 22:56:00,
2013-03-29 18:01:00,56.7,21.8,30.19,East,90,0.0,0.0,26,0.00,,,0.00,WUHU21623XXSP,2013-03-29 23:01:00,
2013-03-29 18:06:00,56.3,22.4,30.19,ENE,67,0.0,0.0,27,0.00,,,0.00,WUHU21623XXSP,2013-03-29 23:06:00,
2013-03-29 18:11:00,56.3,23.4,30.20,ENE,67,1.1,1.1,28,0.00,,,0.00,WUHU21623XXSP,2013-03-29 23:11:00,
2013-03-29 18:15:00,55.8,22.9,30.20,SE,135,0.0,1.1,28,0.00,,,0.00,WUHU21623XXSP,2013-03-29 23:15:00,
2013-03-29 18:20:00,55.6,22.7,30.20,ESE,112,1.1,1.3,28,0.00,,,0.00,WUHU21623XXSP,2013-03-29 23:20:00,
2013-03-29 18:25:00,55.0,22.3,30.20,ESE,112,0.0,1.3,28,0.00,,,0.00,WUHU21623XXSP,2013-03-29 23:25:00,
2013-03-29 18:30:00,54.9,22.1,30.20,SE,135,0.0,0.0,28,0.00,,,0.00,WUHU21623XXSP,2013-03-29 23:30:00,
2013-03-29 18:35:00,54.5,21.8,30.20,East,90,0.0,0.0,28,0.00,,,0.00,WUHU21623XXSP,2013-03-29 23:35:00,
2013-03-29 18:40:00,54.1,23.4,30.20,ESE,112,0.7,0.7,30,0.00,,,0.00,WUHU21623XXSP,2013-03-29 23:40:00,
2013-03-29 18:45:00,53.8,23.8,30.20,ENE,67,0.0,0.7,31,0.00,,,0.00,WUHU21623XXSP,2013-03-29 23:45:00,
2013-03-29 18:50:00,53.6,23.7,30.20,ESE,112,0.0,0.0,31,0.00,,,0.00,WUHU21623XXSP,2013-03-29 23:50:00,
2013-03-29 18:55:00,53.2,24.0,30.20,ENE,67,0.0,0.0,32,0.00,,,0.00,WUHU21623XXSP,2013-03-29 23:55:00,
2013-03-29 19:00:00,53.1,23.9,30.20,ENE,67,0.9,0.9,32,0.00,,,0.00,WUHU21623XXSP,2013-03-30 00:00:00,
2013-03-29 19:05:00,52.9,23.7,30.20,ESE,112,0.0,0.9,32,0.00,,,0.00,WUHU21623XXSP,2013-03-30 00:05:00,
2013-03-29 19:10:00,52.7,23.6,30.20,ESE,112,0.0,0.0,32,0.00,,,0.00,WUHU21623XXSP,2013-03-30 00:10:00,
2013-03-29 19:15:00,52.5,23.4,30.20,ESE,112,0.0,0.0,32,0.00,,,0.00,WUHU21623XXSP,2013-03-30 00:15:00,
2013-03-29 19:20:00,52.3,23.9,30.20,ESE,112,0.0,0.0,33,0.00,,,0.00,WUHU21623XXSP,2013-03-30 00:20:00,
2013-03-29 19:25:00,52.0,23.6,30.19,ESE,112,0.0,0.0,33,0.00,,,0.00,WUHU21623XXSP,2013-03-30 00:25:00,
2013-03-29 19:30:00,51.6,24.0,30.19,ESE,112,0.0,0.0,34,0.00,,,0.00,WUHU21623XXSP,2013-03-30 00:30:00,
2013-03-29 19:35:00,51.4,23.8,30.19,East,90,0.0,0.0,34,0.00,,,0.00,WUHU21623XXSP,2013-03-30 00:35:00,
2013-03-29 19:40:00,50.9,24.0,30.19,East,90,0.0,0.0,35,0.00,,,0.00,WUHU21623XXSP,2013-03-30 00:40:00,
2013-03-29 19:46:00,50.9,24.0,30.19,ESE,112,0.0,0.0,35,0.00,,,0.00,WUHU21623XXSP,2013-03-30 00:46:00,
2013-03-29 19:51:00,50.5,24.4,30.19,East,90,0.0,0.0,36,0.00,,,0.00,WUHU21623XXSP,2013-03-30 00:51:00,
2013-03-29 19:56:00,50.4,24.9,30.19,ENE,67,0.0,0.0,37,0.00,,,0.00,WUHU21623XXSP,2013-03-30 00:56:00,
2013-03-29 20:01:00,50.2,24.7,30.19,ENE,67,0.7,0.7,37,0.00,,,0.00,WUHU21623XXSP,2013-03-30 01:01:00,
2013-03-29 20:06:00,49.5,24.7,30.19,ENE,67,2.5,2.5,38,0.00,,,0.00,WUHU21623XXSP,2013-03-30 01:06:00,
2013-03-29 20:11:00,48.9,25.6,30.19,ESE,112,2.7,2.7,40,0.00,,,0.00,WUHU21623XXSP,2013-03-30 01:11:00,
2013-03-29 20:16:00,48.6,25.3,30.19,ENE,67,0.0,2.7,40,0.00,,,0.00,WUHU21623XXSP,2013-03-30 01:16:00,
2013-03-29 20:21:00,48.0,24.8,30.20,ENE,67,0.7,1.3,40,0.00,,,0.00,WUHU21623XXSP,2013-03-30 01:21:00,
2013-03-29 20:26:00,47.3,24.2,30.20,ENE,67,1.8,4.0,40,0.00,,,0.00,WUHU21623XXSP,2013-03-30 01:26:00,
2013-03-29 20:31:00,46.9,24.4,30.20,ENE,67,0.0,4.0,41,0.00,,,0.00,WUHU21623XXSP,2013-03-30 01:31:00,
2013-03-29 20:36:00,46.6,24.1,30.20,ENE,67,0.2,0.2,41,0.00,,,0.00,WUHU21623XXSP,2013-03-30 01:36:00,
2013-03-29 20:41:00,46.0,24.1,30.20,ENE,67,1.3,1.3,42,0.00,,,0.00,WUHU21623XXSP,2013-03-30 01:41:00,
2013-03-29 20:46:00,45.9,24.0,30.20,East,90,0.0,1.3,42,0.00,,,0.00,WUHU21623XXSP,2013-03-30 01:46:00,
2013-03-29 20:51:00,45.3,23.5,30.20,East,90,0.9,0.9,42,0.00,,,0.00,WUHU21623XXSP,2013-03-30 01:51:00,
2013-03-29 20:56:00,45.1,23.3,30.20,ENE,67,0.7,1.8,42,0.00,,,0.00,WUHU21623XXSP,2013-03-30 01:56:00,
2013-03-29 21:01:00,45.0,23.1,30.19,East,90,0.0,1.8,42,0.00,,,0.00,WUHU21623XXSP,2013-03-30 02:01:00,
2013-03-29 21:06:00,44.6,23.0,30.20,ENE,67,0.0,3.6,42,0.00,,,0.00,WUHU21623XXSP,2013-03-30 02:06:00,
2013-03-29 21:11:00,44.4,22.7,30.20,ENE,67,0.2,3.6,42,0.00,,,0.00,WUHU21623XXSP,2013-03-30 02:11:00,
2013-03-29 21:16:00,44.2,22.0,30.20,ENE,67,3.8,3.8,41,0.00,,,0.00,WUHU21623XXSP,2013-03-30 02:16:00,
2013-03-29 21:21:00,43.9,21.6,30.20,NE,45,0.9,3.8,41,0.00,,,0.00,WUHU21623XXSP,2013-03-30 02:21:00,
2013-03-29 21:26:00,43.7,21.5,30.20,ENE,67,0.4,2.7,41,0.00,,,0.00,WUHU21623XXSP,2013-03-30 02:26:00,
2013-03-29 21:31:00,43.7,21.5,30.20,ENE,67,0.0,2.0,41,0.00,,,0.00,WUHU21623XXSP,2013-03-30 02:31:00,
2013-03-29 21:36:00,43.3,21.7,30.20,ENE,67,0.4,0.4,42,0.00,,,0.00,WUHU21623XXSP,2013-03-30 02:36:00,
2013-03-29 21:41:00,43.3,21.7,30.20,ENE,67,0.0,0.4,42,0.00,,,0.00,WUHU21623XXSP,2013-03-30 02:41:00,
2013-03-29 21:46:00,43.0,21.4,30.20,East,90,0.0,0.7,42,0.00,,,0.00,WUHU21623XXSP,2013-03-30 02:46:00,
2013-03-29 21:51:00,43.0,21.4,30.20,ENE,67,1.6,1.6,42,0.00,,,0.00,WUHU21623XXSP,2013-03-30 02:51:00,
2013-03-29 21:56:00,42.8,20.7,30.20,East,90,0.9,1.6,41,0.00,,,0.00,WUHU21623XXSP,2013-03-30 02:56:00,
2013-03-29 22:01:00,42.6,20.5,30.20,East,90,0.9,1.3,41,0.00,,,0.00,WUHU21623XXSP,2013-03-30 03:01:00,
2013-03-29 22:06:00,42.4,20.3,30.20,ESE,112,0.0,1.6,41,0.00,,,0.00,WUHU21623XXSP,2013-03-30 03:06:00,
2013-03-29 22:11:00,42.4,20.9,30.20,East,90,3.8,3.8,42,0.00,,,0.00,WUHU21623XXSP,2013-03-30 03:11:00,
2013-03-29 22:16:00,42.3,20.2,30.20,ESE,112,2.7,4.7,41,0.00,,,0.00,WUHU21623XXSP,2013-03-30 03:16:00,
2013-03-29 22:21:00,42.3,20.2,30.20,East,90,2.5,4.7,41,0.00,,,0.00,WUHU21623XXSP,2013-03-30 03:21:00,
2013-03-29 22:26:00,42.1,20.0,30.20,ESE,112,0.9,2.7,41,0.00,,,0.00,WUHU21623XXSP,2013-03-30 03:26:00,
2013-03-29 22:31:00,41.9,20.4,30.21,East,90,0.7,1.3,42,0.00,,,0.00,WUHU21623XXSP,2013-03-30 03:31:00,
2013-03-29 22:36:00,41.9,20.4,30.21,East,90,3.8,3.8,42,0.00,,,0.00,WUHU21623XXSP,2013-03-30 03:36:00,
2013-03-29 22:41:00,41.9,20.4,30.21,East,90,0.0,3.8,42,0.00,,,0.00,WUHU21623XXSP,2013-03-30 03:41:00,
2013-03-29 22:46:00,41.7,20.2,30.20,East,90,0.0,0.9,42,0.00,,,0.00,WUHU21623XXSP,2013-03-30 03:46:00,
2013-03-29 22:51:00,41.5,20.0,30.20,East,90,0.0,0.2,42,0.00,,,0.00,WUHU21623XXSP,2013-03-30 03:51:00,
2013-03-29 22:57:00,41.4,19.9,30.20,East,90,2.7,2.7,42,0.00,,,0.00,WUHU21623XXSP,2013-03-30 03:57:00,
2013-03-29 23:00:00,41.4,20.4,30.20,ENE,67,2.0,2.7,43,0.00,,,0.00,WUHU21623XXSP,2013-03-30 04:00:00,
2013-03-29 23:05:00,41.2,20.2,30.20,East,90,0.9,2.0,43,0.00,,,0.00,WUHU21623XXSP,2013-03-30 04:05:00,
2013-03-29 23:10:00,41.0,20.1,30.20,East,90,0.0,2.5,43,0.00,,,0.00,WUHU21623XXSP,2013-03-30 04:10:00,
2013-03-29 23:15:00,41.0,20.1,30.19,ENE,67,1.8,2.5,43,0.00,,,0.00,WUHU21623XXSP,2013-03-30 04:15:00,
2013-03-29 23:20:00,40.8,20.4,30.20,ESE,112,0.0,1.8,44,0.00,,,0.00,WUHU21623XXSP,2013-03-30 04:20:00,
2013-03-29 23:25:00,40.8,20.4,30.20,ESE,112,0.7,2.0,44,0.00,,,0.00,WUHU21623XXSP,2013-03-30 04:25:00,
2013-03-29 23:30:00,40.6,20.3,30.20,ESE,112,3.4,3.4,44,0.00,,,0.00,WUHU21623XXSP,2013-03-30 04:30:00,
2013-03-29 23:35:00,40.5,20.6,30.20,ENE,67,1.3,3.4,45,0.00,,,0.00,WUHU21623XXSP,2013-03-30 04:35:00,
2013-03-29 23:40:00,40.5,20.6,30.20,East,90,2.7,2.7,45,0.00,,,0.00,WUHU21623XXSP,2013-03-30 04:40:00,
2013-03-29 23:45:00,40.3,20.5,30.20,ENE,67,1.8,2.7,45,0.00,,,0.00,WUHU21623XXSP,2013-03-30 04:45:00,
2013-03-29 23:50:00,40.1,20.5,30.19,East,90,1.1,2.0,45,0.00,,,0.00,WUHU21623XXSP,2013-03-30 04:50:00,
2013-03-29 23:55:00,40.1,20.3,30.19,ESE,112,1.1,2.0,45,0.00,,,0.00,WUHU21623XXSP,2013-03-30 04:55:00,